Location: Bremen
(53.0796°N, 8.8241°E)
Time: 22:32:16
(UTC+01:00)

Envisat - Visible Passes

Search period start: 20 February 2018 00:00
Search period end: 02 March 2018 00:00
Orbit: 764 x 766 km, 98.2° (Epoch: 19 February)

Date Brightness Start Highest point End Pass type
(mag) Time Alt. Az. Time Alt. Az. Time Alt. Az.
20 Feb 3.3 18:54:32 10° SE 18:59:19 43° ENE 19:04:08 10° N visible
20 Feb 4.5 20:33:51 10° SSW 20:38:27 34° W 20:43:07 10° NNW visible
21 Feb 4.1 18:18:50 10° ESE 18:22:54 25° ENE 18:26:59 10° N visible
21 Feb 3.3 19:56:29 10° S 20:01:32 66° WSW 20:06:37 10° NNW visible
21 Feb 5.9 21:40:01 10° W 21:41:34 11° W 21:43:09 10° WNW visible
22 Feb 2.9 19:19:46 10° SSE 19:24:48 67° ENE 19:29:52 10° N visible
22 Feb 5.3 21:00:23 10° SW 21:04:19 22° W 21:08:15 10° NW visible
23 Feb 3.6 18:43:38 10° SE 18:48:15 36° ENE 18:52:54 10° N visible
23 Feb 4.2 20:22:27 10° SSW 20:27:15 41° W 20:32:04 10° NNW visible
24 Feb 3.1 19:45:17 10° SSE 19:50:23 79° WSW 19:55:30 10° NNW visible
24 Feb 5.8 21:27:39 10° WSW 21:30:16 14° W 21:32:52 10° NW visible
25 Feb 3.1 19:08:45 10° SE 19:13:42 56° ENE 19:18:41 10° N visible
25 Feb 5.0 20:48:47 10° SSW 20:53:03 27° W 20:57:20 10° NW visible
26 Feb 3.8 18:32:47 10° ESE 18:37:12 31° ENE 18:41:38 10° N visible
26 Feb 3.8 20:11:07 10° S 20:16:03 50° W 20:21:01 10° NNW visible
27 Feb 2.9 19:34:09 10° SSE 19:39:14 86° ENE 19:44:22 10° NNW visible
27 Feb 5.6 21:15:41 10° SW 21:18:57 17° W 21:22:15 10° NW visible
28 Feb 3.3 18:57:46 10° SE 19:02:36 46° ENE 19:07:28 10° N visible
28 Feb 4.7 20:37:17 10° SSW 20:41:48 32° W 20:46:22 10° NNW visible
01 Mar 3.5 19:59:50 10° S 20:04:52 61° WSW 20:09:56 10° NNW visible
01 Mar 6.1 21:44:14 10° W 21:44:58 10° W 21:45:43 10° WNW visible
